Lid_Strength_Index
1 1 2 3 3 3 3 3 3 3 3 3 2 2 2 2 3 5 10 7 6 -1 -1 5 3 4 3 4 4 4 11 13 10 10 8 6 7 5 4 6 5 4 5 4 2
1 1 1 2 2 2 3 3 3 3 3 3 3 2 2 2 5 8 4 1 -0 -2 5 5 6 5 6 6 5 7 11 10 7 7 8 7 6 6 6 6 6 6 4 3 3
2 2 1 2 2 2 2 2 2 2 2 2 2 2 2 2 7 8 -0 0 -2 -2 5 5 6 7 8 6 6 7 10 7 6 6 5 6 6 5 7 8 7 7 6 4 4
2 2 2 2 2 2 2 2 2 1 2 2 2 2 1 4 10 6 -3 -1 -2 1 4 6 6 8 9 8 6 8 7 6 6 5 6 7 6 7 6 6 4 4 4 4 4
2 2 2 2 2 2 2 2 2 2 2 2 2 1 3 7 9 2 -2 -2 1 4 6 6 7 8 9 7 7 8 7 6 5 5 6 6 6 7 7 5 4 4 4 4 4
3 2 2 2 2 2 2 2 2 2 2 2 2 1 6 11 5 1 2 4 6 6 6 6 6 6 7 6 7 7 7 6 5 6 6 7 7 6 6 4 5 5 5 4 4
3 3 2 2 2 2 2 2 3 2 2 2 1 1 5 8 5 4 6 7 6 4 5 5 4 7 8 8 5 6 8 7 7 6 6 6 8 8 6 5 6 6 5 5 5
3 3 3 3 2 2 2 2 3 2 2 1 1 3 8 4 4 6 6 5 4 5 4 4 5 7 7 5 6 8 8 11 7 6 6 7 11 8 5 6 7 6 5 5 5
3 3 3 3 3 2 2 3 2 2 1 1 4 5 7 2 4 5 5 5 4 4 4 3 6 7 6 8 10 9 12 11 9 6 7 8 11 8 6 7 7 6 6 5 5
3 3 3 3 3 3 3 4 3 2 3 2 2 7 5 5 4 4 5 4 5 5 5 5 7 8 9 10 14 12 12 10 10 7 7 10 11 8 7 7 7 7 6 6 5
3 3 4 4 4 4 5 6 7 7 6 7 7 6 4 3 3 3 3 4 5 6 9 8 10 11 10 9 8 9 10 11 9 7 9 10 10 9 7 7 8 7 7 6 5
3 3 3 4 5 5 6 7 4 6 9 5 4 4 4 4 5 4 3 6 6 9 8 8 11 8 7 7 8 9 10 10 8 7 8 10 11 9 8 8 7 7 7 6 6
4 4 4 4 4 7 6 6 6 6 10 6 4 5 5 5 6 6 4 5 7 8 8 10 9 6 7 8 9 9 10 10 10 8 8 10 13 11 8 7 7 6 6 6 6
4 4 4 4 5 5 5 4 6 7 12 9 7 5 5 6 7 4 3 5 7 8 8 9 7 7 8 8 8 12 8 8 9 11 13 9 16 12 10 9 8 7 7 7 6
4 4 4 5 7 7 4 5 5 7 16 7 8 5 6 7 6 6 4 5 7 8 8 9 8 8 9 8 7 10 7 8 9 11 13 12 15 13 10 11 9 8 7 6 6
5 4 5 5 7 5 3 3 5 11 15 8 7 8 9 9 8 7 7 5 5 8 8 8 7 7 7 6 7 6 8 10 11 12 16 14 14 15 13 11 9 8 7 6 6
5 4 5 4 5 3 3 5 11 14 8 9 10 9 9 8 9 6 7 9 10 13 12 9 9 7 6 8 7 8 11 16 17 17 17 13 15 14 10 9 8 8 7 6 6
5 6 7 5 5 4 5 8 15 10 9 6 6 7 9 7 7 7 8 9 8 9 11 11 13 9 7 8 10 11 12 16 21 20 18 13 17 14 9 7 7 7 7 6 6
6 5 6 4 4 4 7 12 12 9 7 7 8 9 10 8 8 8 9 10 8 9 12 13 12 7 7 7 8 11 12 11 16 15 17 16 14 10 8 8 8 7 7 7 6
7 6 4 3 3 5 9 11 9 6 6 7 10 9 11 10 10 10 10 8 9 7 8 10 14 9 7 6 7 9 9 15 15 21 22 18 17 16 11 10 9 9 8 7 6
5 6 3 4 4 7 11 10 8 6 6 7 9 9 9 9 10 10 10 8 8 8 8 10 12 11 9 11 12 11 13 13 14 15 19 20 18 11 11 10 9 9 7 7 6
7 9 3 4 9 10 11 8 8 7 6 7 7 7 8 8 9 10 11 9 6 7 11 9 12 15 13 9 8 10 12 12 16 17 16 17 17 9 9 9 8 8 7 6 5
10 7 2 5 11 12 9 7 7 7 6 8 7 7 7 9 11 8 10 7 7 8 9 9 13 16 14 12 9 11 10 11 12 13 17 18 17 9 8 8 9 8 8 6 6
9 10 6 6 8 11 11 10 8 6 6 6 7 7 8 9 9 10 10 8 6 7 7 8 12 14 17 14 12 13 11 10 12 16 15 15 15 12 10 9 10 8 8 7 6
7 9 7 10 9 8 9 11 9 8 6 6 8 8 9 12 11 11 9 9 7 7 8 9 13 12 12 11 11 11 11 11 12 12 14 13 14 11 9 10 10 8 7 6 7
9 8 7 8 7 8 9 9 9 8 7 8 9 7 8 11 10 12 10 10 10 9 10 9 14 12 13 11 11 12 11 10 11 10 11 11 12 8 8 10 10 9 7 7 7
6 7 6 8 9 10 10 9 8 7 6 6 6 8 9 8 7 8 8 8 8 9 10 11 13 15 16 12 13 15 12 11 10 10 10 13 11 9 11 10 9 8 9 8 7